THORAD AGENA D DEB, 4650

Orbit data source: Space-Track

THORAD AGENA D DEB, 4650 is space debris in SSO originally from a launch on Wed, 08 Apr 1970 UTC launched from the Air Force Western Test Range (AFWTR). Debris objects in space refer to the collection of defunct objects orbiting the Earth. Examples of debris include non-operational satellites, rocket bodies, and fragments generated from explosions, collisions, or faulty payload assembly.

Loading next visibility...
Identifier
4650, 1970-025AJ
Orbit
SSO
Country
Flag of USUS
Related business
Manufacturer
Unknown
Mission
Spacecraft
Bus & Motor
Unknown
Mass
Unknown
Launch date (UTC)
1970-04-08 (56 years ago)
Launch vehicle
Unknown
Launch site
Air Force Western Test Range (AFWTR)
Object type
Payload
Rocket body
Debris
Shape & HBR
Unknown shape, 0.2 m
Radar Cross Section
Small (<0.1 m²)

Expand to show TLE details & history
Last TLE update: 14 hours ago

TLE from 14 hours ago
0 THORAD AGENA D DEB
1 04650U 70025AJ  25286.89318622  .00001367  00000-0  75069-3 0  9998
2 04650  99.8307  26.3608 0114060  47.9966 313.0846 14.10417785822961
Epoch: 2025-10-13T21:26Z
TLE epoch observation values (Epoch: 2025-10-13T21:26:11.289Z)
Latitude
-0.00005°
Longitude
42.12434°
Altitude
804.926 km
Speed
7.48 km/s
True Right ascension
01h 45m 26s
True Declination
0° 00' 00"
Sunlit
Object was in full shadow at epoch
Visualization orbit readout
Latitude
Unknown
Longitude
Unknown
Altitude
Unknown
Speed
Unknown
Apparent Right ascension
Unknown
Apparent Declination
Unknown
Sunlit
N/A
Visualization observer readout
Local Sidereal Time
05:33:33
Azimuth
Unknown
Elevation
Unknown
Doppler factor
Unknown
Orbital elements
Apogee altitude
937.673 km
Perigee altitude
772.667 km
Semi-major axis
7,233.307 km
Eccentricity
0.01141
Inclination
99.8307°
RAAN
26.3608°
Arg. of periapsis
47.9966°
True anomaly
312.12068°
Mean anomaly
313.0846°
Eccentric anomaly
312.60358°
Mean motion
3.52808 °/min
Orbital period
102.04 mins
BSTAR
0.00075069
Loading maneuver chart data...
Computing Atmospheric mass density...

Documentation

Showing up to 5 results
|